Showing default

HAWK-10B, 60545

Orbit data source: Space-Track

HAWK-10B, 60545 is a payload satellite owned by HawkEye 360 (US) in SSO that was launched on Fri, 16 Aug 2024 UTC via an FALCON 9 launch vehicle from the Air Force Western Test Range (AFWTR). Payload-class satellites include a variety of spacecraft equipped with specific instruments for various scientific and technological missions. These include communications satellites like Starlink; space stations such as the ISS; scientific satellites like the Hubble; Earth observation satellites from companies like Planet Labs, Umbra, and HawkEye 360; GPS; miniature CubeSats for education and research; and military/defense satellites.

Loading next visibility...
Identifier
60545, 2024-149CF
Orbit
SSO
Country
Flag of USUS
Related business
Manufacturer
UTIAS-SFL
Mission
Operational Commercial Sigint
Bus & Motor
HAWK2G, Unknown motor
Mass
31 kg wet, 30 kg dry
Launch date (UTC)
2024-08-16 (2 years ago)
Launch vehicle
FALCON 9
Launch site
Air Force Western Test Range (AFWTR)
Object type
Payload
Rocket body
Debris
Shape & HBR
Box + 2 Pan, 1.0 m
Radar Cross Section
0.240 m², Medium (>0.1 m² and < 1m²)

Expand to show TLE details & history
Last TLE update: 6 hours ago

TLE from 6 hours ago
0 HAWK-10B
1 60545U 24149CF  26174.92263533  .00000722  00000-0  68570-4 0  9994
2 60545  97.6813 250.0669 0006599  74.5440 285.6510 14.96530093100993
Epoch: 2026-06-23T22:08Z
TLE epoch observation values (Epoch: 2026-06-23T22:08:35.692Z)
Latitude
-0.00003°
Longitude
5.83094°
Altitude
579.442 km
Speed
7.571 km/s
True Right ascension
16h 40m 16s
True Declination
0° 00' 00"
Sunlit
Object was in full shadow at epoch
Visualization orbit readout
Latitude
Unknown
Longitude
Unknown
Altitude
Unknown
Speed
Unknown
Apparent Right ascension
Unknown
Apparent Declination
Unknown
Sunlit
N/A
Visualization observer readout
Local Sidereal Time
15:21:02
Azimuth
Unknown
Elevation
Unknown
Doppler factor
Unknown
Orbital elements
Apogee altitude
579.225 km
Perigee altitude
570.048 km
Semi-major axis
6,952.774 km
Eccentricity
0.00066
Inclination
97.6813°
RAAN
250.0669°
Arg. of periapsis
74.544°
True anomaly
285.57817°
Mean anomaly
285.651°
Eccentric anomaly
285.61459°
Mean motion
3.74374 °/min
Orbital period
96.16 mins
BSTAR
0.00006857
Loading maneuver chart data...
Computing Atmospheric mass density...
Loading historical data...
Loading historical data...
Loading historical data...
Loading historical data...
Loading historical data...
Loading historical data...
Loading historical data...

Documentation

Showing up to 5 results
|